Regional Weather Roundup
Issued by NWS

Home | Current Version | Previous Version | Graphics & Text | Print | Product List | Glossary On
Versions: 1 2 3 4 5 6 7 8 9 10 11 12 13 14 15 16 17 18 19 20 21 22 23 24 25 26 27 28 29 30 31 32 33 34 35 36 37 38 39 40 41 42 43 44 45 46 47 48 49 50
000
ASUS43 KLMK 222110
RWRKY
KENTUCKY REGIONAL WEATHER ROUNDUP
NATIONAL WEATHER SERVICE LOUISVILLE KY
500 PM EDT FRI AUG 22 2014

NOTE "FAIR" INDICATES FEW OR NO CLOUDS BELOW 12,000 FEET
WITH NO SIGNIFICANT WEATHER AND/OR OBSTRUCTIONS TO VISIBILITY.

KYZ001>023-026-027-061>063-070>075-222200-
WESTERN AND SOUTH CENTRAL KENTUCKY

CITY           SKY/WX    TMP DP  RH WIND       PRES   REMARKS
PADUCAH        MOSUNNY   94  75  54 S7        29.97F HX 105
HENDERSON      PTSUNNY   91  75  59 SW5       29.95F HX 102
OWENSBORO      PTSUNNY   90  77  65 W8        29.97F HX 103
HOPKINSVILLE   MOSUNNY   89  75  63 W9        30.00F HX  98
BOWLING GREEN  PTSUNNY   92  71  50 W10G18    29.99F HX  98
GLASGOW        MOSUNNY   90  71  54 SW7       30.00F HX  96
$$

KYZ024-025-028>034-038-045-046-053-222200-
NORTH CENTRAL KENTUCKY

CITY           SKY/WX    TMP DP  RH WIND       PRES   REMARKS
LOUISVILLE/SDF CLOUDY    88  76  67 SW12      29.96F HX  99
LOUISVILLE/LOU PTSUNNY   88  75  65 W8        29.97S HX  97
FORT KNOX      PTSUNNY   88  77  70 SW8       29.98S HX 100
$$

KYZ035>037-039>044-047>052-055>060-089>105-222200-
NORTHEAST KENTUCKY

CITY           SKY/WX    TMP DP  RH WIND       PRES   REMARKS
LEXINGTON      PTSUNNY   90  75  61 W8        29.98F HX 100
COVINGTON      CLOUDY    85  74  69 W7        29.98R HX  92
FRANKFORT      MOSUNNY   89  76  65 SW10      29.96F HX 100
$$

KYZ054-064>069-076>088-106>120-222200-
SOUTHEAST KENTUCKY

CITY           SKY/WX    TMP DP  RH WIND       PRES   REMARKS
JACKSON        PTSUNNY   86  75  69 VRB3      30.02S HX  95
LONDON         MOSUNNY   89  71  55 W10       30.03S HX  95
SOMERSET       PTSUNNY   88  70  55 W10       30.03S HX  92
MIDDLESBORO    MOSUNNY   91  70  51 SW6       30.03F HX  96
MONTICELLO     PTCLDY    89  75  63 SW7       30.04F HX  98
$$



USA.gov is the U.S. government's official web portal to all federal, state and local government web resources and services.